Temperature
16 16 17 17 17 17 17 17 17 17 17 17 17 17 17 17 17 17 18 18 18 18 18 18 18 18 18 18 18 18 18 18 18 18 18 18 18 18 18 18 18 17 18
16 16 17 17 17 17 17 17 17 17 17 17 17 17 17 17 17 17 17 17 17 18 18 18 18 18 18 18 18 18 18 18 18 18 18 18 18 18 18 18 18 18 18
16 16 16 17 17 17 17 17 17 17 17 17 17 17 17 17 17 17 17 17 17 17 17 18 18 18 18 18 18 18 18 18 18 18 18 17 17 18 18 18 18 18 18
16 16 16 17 16 16 17 17 17 17 17 17 17 17 17 17 17 17 17 17 17 17 17 17 17 17 17 17 17 17 17 17 17 17 17 17 17 18 18 18 17 18 17
16 16 16 16 16 16 16 16 16 16 16 16 16 17 17 16 16 17 17 17 17 17 17 17 17 17 17 17 17 17 17 17 17 17 17 17 17 17 17 17 17 17 17
16 16 16 16 16 16 16 16 16 16 16 16 16 16 16 16 16 16 17 17 17 17 17 17 17 17 17 17 17 17 17 17 17 16 17 17 17 17 17 17 17 17 17
16 16 16 16 16 16 16 16 16 16 16 16 16 16 16 16 16 16 16 16 16 17 17 17 17 17 17 17 17 17 17 17 16 16 16 16 17 17 17 17 17 17 17
16 16 16 16 16 16 16 16 16 16 16 16 16 16 16 16 16 16 16 16 16 16 16 16 16 17 17 17 17 17 16 16 16 16 16 16 17 17 17 17 17 17 17
16 16 16 16 16 16 16 16 16 16 16 16 16 16 16 16 16 16 16 16 16 16 16 16 16 16 16 16 16 16 16 16 16 16 16 16 16 16 16 17 16 16 16
16 16 16 16 16 16 16 16 16 16 16 16 16 16 16 16 16 16 16 16 16 16 16 16 16 16 16 16 16 16 16 16 16 16 16 16 16 16 16 16 16 16 16
17 17 17 16 16 16 16 16 16 16 16 16 16 16 16 16 16 16 16 16 16 16 16 16 16 16 16 16 16 16 16 16 16 16 16 16 16 16 16 16 16 16 16
17 17 17 17 16 16 16 16 16 16 16 15 15 16 16 16 16 16 16 16 16 16 16 16 16 16 16 16 16 16 16 15 15 15 15 16 16 16 16 16 16 16 16
17 17 17 17 16 16 16 16 16 16 15 15 15 15 16 16 16 16 16 15 15 15 15 15 15 15 15 15 15 15 15 15 15 15 15 16 16 16 16 15 15 15 15
17 17 17 17 17 16 16 16 16 16 16 16 16 15 16 16 16 15 15 15 15 15 15 15 15 15 15 15 15 15 15 15 15 15 15 15 15 15 15 15 15 15 15
17 17 17 16 17 16 16 16 16 16 16 16 15 15 15 15 15 15 15 15 15 15 15 15 15 15 15 15 15 15 15 15 15 15 15 15 15 15 15 15 15 15 15
18 17 17 17 16 16 16 16 16 16 16 15 15 15 15 15 15 15 15 15 15 15 15 15 15 15 15 15 15 15 15 14 15 14 14 14 15 15 15 15 15 15 15
18 17 17 17 17 16 16 16 16 16 16 15 15 15 15 15 15 15 15 15 15 15 15 15 15 15 15 15 14 14 14 14 14 14 14 14 14 14 14 14 14 14 15
18 17 17 17 16 16 16 16 16 15 15 15 15 15 15 15 15 15 15 15 15 15 15 15 14 15 15 14 14 14 14 14 14 14 14 14 14 14 14 14 14 14 14
18 17 17 17 16 16 16 15 15 15 15 15 15 15 15 15 15 15 15 14 14 14 14 14 14 14 14 14 14 14 14 14 14 14 14 14 14 14 14 14 14 14 14
17 17 17 17 16 16 16 16 15 15 15 15 15 15 15 15 15 15 14 14 14 14 14 14 14 14 14 14 14 14 14 14 14 14 13 14 14 14 14 14 14 14 14
17 17 17 17 16 16 16 15 15 15 15 15 15 15 15 15 15 15 15 14 14 14 14 14 14 14 14 14 14 13 13 13 13 13 13 13 13 13 13 14 14 13 13
17 17 17 17 16 16 16 15 15 15 15 15 15 15 15 15 14 14 14 14 14 14 14 14 14 14 14 13 14 14 14 14 13 13 13 13 13 13 13 13 13 13 13
18 17 17 17 16 16 16 15 15 15 15 15 15 15 15 15 14 14 14 14 14 14 14 14 14 14 14 14 14 14 14 14 13 13 13 13 13 13 13 13 13 13 13
18 17 17 17 16 16 16 15 15 15 15 15 15 15 15 15 14 14 14 14 14 14 14 14 14 13 13 14 14 14 14 14 14 13 13 13 13 13 13 13 13 12 13
18 17 17 17 16 16 16 15 15 15 15 15 15 15 15 14 14 14 14 14 14 14 14 14 14 13 13 13 13 13 13 13 14 14 13 13 13 12 12 12 12 12 12
18 17 17 17 16 16 16 15 15 15 15 15 15 15 14 14 14 14 14 14 14 14 14 14 14 14 13 13 13 13 13 13 13 13 13 13 13 12 12 12 12 12 12
Wind_Speed
4 5 7 6 5 6 7 8 8 8 8 7 7 6 6 6 7 7 7 6 6 5 4 4 5 6 7 8 8 9 8 8 8 9 8 8 8 8 7 5 4 6 7
4 5 6 5 6 8 8 9 8 8 8 8 8 7 7 7 7 7 7 7 7 6 5 4 5 6 7 8 9 10 9 9 9 9 8 9 8 8 7 6 5 7 7
4 5 7 7 7 8 8 8 9 8 9 9 8 8 8 8 8 8 8 8 8 7 5 4 6 7 8 9 10 10 10 9 9 8 6 7 10 9 8 7 7 7 7
4 5 8 7 7 7 8 8 8 9 9 9 9 9 8 8 8 8 9 9 9 9 8 8 9 9 8 9 10 10 10 9 8 5 5 7 8 10 8 7 7 7 7
5 6 8 6 7 8 8 8 9 9 9 9 9 9 9 8 9 9 9 9 9 10 11 11 11 11 10 10 11 10 10 9 6 4 7 7 8 9 8 7 8 7 7
6 6 8 7 7 8 8 7 8 9 9 9 10 9 9 9 9 9 9 9 10 10 11 11 12 12 11 11 11 10 9 7 4 6 6 6 8 9 8 8 8 8 7
7 7 8 8 7 7 8 8 9 9 9 10 10 11 10 10 9 9 9 10 10 11 11 12 12 12 12 12 11 10 8 5 5 5 5 6 8 9 8 9 9 8 8
7 7 7 8 7 7 8 8 9 9 10 10 11 11 10 10 11 11 10 11 11 11 11 12 12 12 12 11 10 9 7 3 6 6 6 7 9 8 8 8 8 8 8
6 6 6 6 8 8 9 9 9 10 10 11 11 11 11 11 11 11 11 11 11 11 11 12 12 12 12 11 11 10 9 6 5 6 7 8 9 8 8 9 8 8 8
6 6 6 6 7 7 8 10 9 10 10 10 10 10 9 9 10 11 12 12 11 11 11 12 12 12 12 11 11 10 7 4 7 7 7 8 9 9 9 9 8 8 8
5 5 5 5 6 7 7 8 8 8 8 7 8 8 5 7 9 9 12 11 11 11 11 12 12 11 10 10 10 7 5 6 7 7 8 9 9 8 8 8 8 8 8
5 5 5 5 5 6 6 6 6 7 7 7 8 7 6 7 8 9 11 11 11 10 10 11 8 7 5 7 7 4 5 7 7 7 9 10 9 8 8 7 7 7 7
5 5 5 5 5 5 5 5 5 5 5 7 7 7 6 6 6 6 6 7 8 7 8 7 6 7 7 6 5 6 6 6 6 7 10 10 9 8 7 7 7 7 6
5 5 5 5 5 5 5 5 4 4 5 5 6 6 5 4 4 5 5 6 6 6 6 6 5 7 7 8 7 7 7 6 7 7 9 10 9 8 7 7 7 6 6
5 5 5 4 5 5 5 3 4 4 4 5 5 5 5 4 5 5 5 5 5 6 5 5 5 7 7 7 8 8 7 8 7 7 8 11 9 9 8 7 7 6 6
4 5 5 4 4 4 4 3 4 4 4 5 5 5 5 5 4 4 5 5 5 5 5 5 6 6 6 7 7 7 7 7 7 7 7 8 10 10 9 9 8 7 7
4 5 5 4 4 4 4 4 3 3 4 4 4 5 5 5 5 4 4 5 5 5 5 5 6 6 6 6 6 7 7 7 7 7 6 6 7 9 10 10 10 9 8
4 4 5 4 4 4 4 3 3 4 4 4 4 4 5 5 5 5 4 4 5 5 5 4 4 4 5 5 5 5 5 5 6 6 6 6 6 7 10 12 12 11 10
3 4 5 4 4 4 3 3 3 4 4 4 4 4 4 5 4 5 4 4 5 4 4 4 4 4 4 4 4 4 4 4 5 6 6 7 7 7 7 10 11 12 11
3 3 4 4 3 4 3 3 3 3 3 3 3 4 4 4 4 4 3 3 4 3 3 4 4 3 3 3 4 4 4 4 4 5 5 6 7 8 8 8 7 8 10
5 4 4 4 4 3 2 2 2 2 2 2 3 3 3 3 3 3 2 3 2 3 3 4 3 4 3 2 2 3 3 4 4 4 4 4 5 6 7 7 7 6 6
6 5 5 4 4 3 2 1 1 1 1 2 2 2 3 3 3 2 2 2 2 2 3 3 3 2 2 0 1 0 1 2 3 3 3 3 4 4 6 7 7 7 7
6 6 5 5 5 4 3 2 2 2 2 2 2 2 2 2 2 2 2 2 2 2 2 2 1 1 1 0 1 2 1 1 1 2 3 3 4 4 4 5 6 7 7
7 6 5 5 5 4 4 3 2 1 1 1 1 2 2 2 2 2 2 2 2 2 2 1 1 0 0 1 1 1 2 1 1 1 2 2 3 3 4 4 5 6 7
7 6 5 6 5 4 3 3 2 1 1 1 1 2 2 2 1 1 1 1 1 1 1 1 0 1 1 1 1 1 1 0 1 1 1 1 1 2 3 3 3 5 6
7 6 6 6 5 4 4 4 3 2 2 2 1 1 1 1 1 1 1 1 1 1 1 1 1 1 1 1 1 1 0 1 0 0 0 0 1 1 2 2 3 4 5
Wind_Direction
25 25 27 18 45 56 59 62 63 68 69 72 70 79 84 88 87 87 87 86 82 79 83 102 117 119 117 117 115 111 110 112 113 114 112 105 102 101 97 97 113 107 98
29 29 44 38 58 64 65 61 63 69 68 67 70 75 80 83 83 82 82 81 78 72 71 93 114 117 116 117 116 111 107 104 107 109 112 111 102 98 91 81 60 78 87
40 46 65 65 62 65 68 64 62 64 68 67 70 73 74 77 81 81 77 75 73 68 64 84 113 115 114 113 112 110 107 104 103 106 122 111 101 91 87 81 78 81 83
52 56 59 66 68 70 70 68 65 63 65 66 70 73 76 77 78 76 75 71 69 66 70 88 103 106 107 109 111 108 103 100 100 116 104 90 93 87 83 80 81 81 79
65 66 68 64 68 69 72 72 71 67 65 67 73 76 78 77 75 74 72 71 71 71 74 83 90 95 99 103 104 104 101 98 100 101 85 81 81 83 80 79 83 82 77
72 72 75 64 66 70 71 72 73 70 68 69 71 73 76 76 77 78 76 74 73 74 76 81 87 90 92 95 97 99 103 108 117 83 85 86 84 84 80 77 77 77 75
70 68 77 67 66 69 70 72 77 73 68 71 72 69 70 73 76 79 78 78 77 76 78 82 85 89 91 91 91 92 101 106 96 89 88 84 81 82 80 77 75 75 72
71 70 77 85 73 68 70 72 74 73 69 71 72 71 73 74 74 79 79 80 78 78 80 83 84 89 90 91 91 87 82 85 99 88 82 84 84 83 80 79 76 72 71
74 69 67 79 92 92 76 70 74 73 69 71 73 73 73 74 73 73 75 78 78 79 81 85 86 87 87 87 86 84 76 57 74 77 79 78 82 80 81 79 74 70 69
80 70 66 72 73 80 87 81 74 73 72 75 76 75 80 89 86 80 79 77 76 74 77 80 82 83 83 82 81 80 76 68 65 69 71 80 82 80 80 77 72 71 69
82 76 75 76 77 76 79 89 88 87 80 89 92 84 84 85 83 86 73 74 72 71 75 73 74 80 87 90 82 78 74 69 69 64 63 69 74 75 76 77 74 71 67
90 80 74 78 83 83 81 84 77 77 78 70 68 69 68 71 73 74 86 79 75 77 85 77 78 85 78 84 91 90 71 70 69 67 65 64 67 70 72 74 75 71 68
90 84 78 79 84 89 88 78 72 71 74 72 67 71 69 74 84 77 81 90 84 81 79 79 76 64 63 65 66 68 62 62 65 62 60 55 56 64 70 71 72 70 68
93 86 85 87 89 89 86 81 75 72 69 69 66 67 68 72 74 74 75 72 76 77 71 68 65 70 66 67 67 67 65 61 63 62 59 52 52 56 61 68 68 68 64
100 96 88 92 93 94 87 83 80 71 65 77 71 68 73 73 77 82 80 79 78 82 85 82 77 74 67 64 62 61 62 62 63 60 64 59 53 51 55 61 62 64 61
112 102 98 96 100 105 105 94 77 75 81 72 69 69 78 82 81 75 82 78 75 79 82 87 85 78 71 67 62 62 60 61 59 58 57 66 65 58 55 54 53 58 58
117 111 103 98 100 102 96 85 80 79 77 73 75 74 81 80 81 77 72 77 77 88 93 87 84 79 76 73 68 62 59 55 56 54 53 50 64 69 61 53 49 52 57
129 122 117 115 109 102 97 95 84 76 75 75 77 74 75 80 82 78 73 77 82 88 92 94 88 83 81 77 72 66 64 61 54 50 53 53 49 53 61 55 48 47 48
146 141 133 124 118 109 102 102 88 82 75 70 76 73 68 76 83 85 77 76 84 88 91 95 88 84 86 83 82 76 67 62 59 55 54 51 51 50 52 61 56 49 44
159 155 140 128 124 115 116 110 105 91 82 74 74 81 73 71 77 89 93 92 91 93 95 96 96 92 92 95 87 77 69 68 64 55 50 50 47 46 44 44 48 55 48
169 167 148 142 134 127 129 124 111 101 94 89 77 74 86 85 85 87 86 89 92 96 107 110 105 105 100 105 108 97 87 75 65 60 54 49 49 44 43 42 41 39 52
171 169 158 151 145 144 139 126 116 100 85 81 99 93 85 84 83 84 91 104 111 118 122 123 124 110 109 93 359 118 135 121 82 63 62 52 46 47 39 38 43 43 41
176 174 166 160 159 155 146 137 125 113 117 119 113 100 89 91 84 77 92 103 115 130 128 146 161 161 117 76 359 346 351 62 95 95 68 59 48 42 39 36 38 43 46
181 178 172 163 162 155 155 159 148 138 117 97 98 109 110 100 90 76 90 99 111 111 131 154 146 259 281 42 57 10 358 5 314 131 115 79 56 42 36 37 33 41 46
174 175 176 165 160 159 168 167 177 141 124 127 131 124 130 118 112 115 114 118 123 131 136 134 130 269 279 306 349 36 60 16 291 343 81 87 72 45 38 33 36 41 43
168 169 169 168 165 164 178 185 190 167 162 152 160 146 147 139 145 146 162 165 152 150 162 184 211 232 271 303 304 298 294 330 351 349 318 34 49 57 52 38 36 48 48
Height
1533 1532 1530 1529 1528 1528 1527 1527 1527 1526 1526 1526 1526 1526 1525 1525 1525 1525 1525 1524 1524 1524 1523 1523 1524 1524 1525 1525 1526 1526 1527 1528 1529 1529 1530 1530 1531 1531 1532 1532 1532 1533 1532
1533 1532 1530 1530 1529 1529 1528 1528 1527 1527 1527 1527 1526 1526 1526 1526 1526 1526 1525 1525 1524 1523 1522 1522 1523 1524 1525 1526 1527 1527 1528 1529 1530 1530 1531 1531 1532 1532 1532 1533 1533 1533 1533
1534 1533 1532 1530 1530 1530 1529 1529 1529 1528 1528 1528 1527 1527 1527 1527 1527 1527 1526 1525 1524 1523 1520 1518 1520 1523 1525 1526 1527 1528 1529 1530 1531 1531 1532 1533 1533 1532 1533 1533 1533 1533 1534
1535 1534 1533 1531 1531 1531 1531 1530 1530 1529 1529 1529 1528 1528 1528 1528 1528 1528 1527 1526 1525 1523 1519 1516 1520 1523 1525 1527 1528 1529 1530 1531 1532 1532 1534 1534 1534 1533 1534 1534 1534 1534 1534
1536 1535 1534 1533 1532 1532 1531 1531 1531 1530 1530 1530 1530 1529 1529 1529 1529 1529 1528 1527 1526 1525 1522 1521 1523 1525 1526 1527 1529 1530 1531 1532 1533 1534 1534 1534 1534 1534 1534 1535 1535 1535 1535
1537 1536 1535 1534 1534 1533 1532 1532 1532 1532 1532 1531 1531 1531 1531 1530 1530 1530 1530 1529 1528 1528 1527 1526 1527 1527 1528 1529 1530 1531 1532 1533 1534 1534 1535 1535 1535 1535 1535 1535 1535 1535 1535
1538 1538 1537 1535 1535 1534 1534 1533 1533 1533 1533 1533 1533 1532 1532 1532 1532 1531 1531 1531 1530 1530 1529 1529 1529 1530 1530 1531 1532 1532 1533 1533 1535 1535 1536 1536 1536 1535 1536 1536 1535 1535 1535
1539 1539 1538 1537 1536 1536 1536 1535 1535 1535 1535 1535 1534 1534 1534 1534 1533 1533 1533 1533 1532 1532 1532 1532 1532 1532 1532 1533 1533 1534 1534 1535 1536 1537 1537 1537 1536 1536 1536 1536 1536 1536 1535
1541 1541 1540 1540 1539 1537 1537 1537 1537 1537 1537 1536 1536 1536 1535 1535 1535 1535 1535 1534 1534 1534 1534 1534 1534 1534 1534 1535 1535 1535 1536 1536 1537 1538 1538 1537 1537 1537 1537 1536 1536 1536 1536
1542 1542 1542 1541 1541 1541 1540 1539 1539 1539 1538 1538 1538 1537 1537 1537 1537 1537 1537 1536 1536 1536 1536 1536 1536 1536 1536 1536 1537 1537 1537 1538 1539 1539 1539 1538 1537 1537 1537 1537 1537 1536 1536
1544 1543 1543 1543 1543 1542 1542 1541 1541 1541 1540 1540 1540 1539 1539 1540 1539 1539 1538 1538 1538 1538 1538 1537 1537 1537 1537 1538 1538 1538 1539 1540 1540 1539 1539 1538 1538 1538 1537 1537 1537 1536 1536
1545 1545 1545 1544 1544 1544 1543 1543 1543 1543 1543 1542 1542 1541 1541 1541 1541 1541 1540 1540 1540 1539 1539 1539 1539 1539 1539 1540 1539 1540 1541 1541 1541 1540 1540 1539 1538 1538 1538 1537 1537 1536 1536
1547 1546 1546 1546 1545 1545 1545 1545 1545 1545 1544 1544 1544 1543 1543 1543 1543 1542 1542 1542 1541 1541 1541 1541 1541 1541 1541 1541 1541 1541 1541 1542 1542 1541 1540 1539 1539 1538 1538 1538 1537 1537 1536
1548 1547 1547 1547 1547 1547 1547 1547 1546 1546 1546 1546 1545 1545 1545 1544 1544 1544 1544 1543 1543 1543 1543 1543 1543 1543 1543 1542 1542 1542 1542 1542 1542 1541 1541 1540 1540 1539 1539 1538 1538 1537 1536
1548 1549 1548 1548 1548 1548 1548 1548 1548 1548 1548 1547 1546 1546 1546 1546 1545 1545 1545 1544 1544 1544 1544 1544 1545 1544 1544 1544 1544 1543 1543 1543 1543 1542 1542 1541 1540 1540 1539 1539 1538 1537 1536
1549 1550 1549 1549 1549 1549 1549 1549 1549 1549 1548 1549 1548 1548 1547 1547 1547 1546 1546 1546 1546 1545 1545 1546 1546 1545 1545 1544 1544 1544 1544 1544 1543 1543 1542 1542 1541 1541 1540 1539 1538 1538 1537
1550 1550 1550 1550 1550 1550 1550 1550 1550 1550 1550 1550 1549 1549 1549 1548 1548 1547 1547 1547 1546 1546 1546 1546 1546 1546 1545 1545 1545 1545 1545 1544 1544 1544 1543 1543 1542 1541 1541 1540 1539 1538 1537
1550 1550 1550 1550 1551 1551 1551 1551 1551 1551 1551 1550 1550 1550 1550 1549 1549 1548 1548 1548 1547 1547 1547 1547 1547 1547 1546 1546 1546 1546 1545 1545 1544 1544 1544 1543 1543 1542 1541 1540 1539 1538 1537
1550 1551 1551 1551 1551 1551 1551 1551 1551 1551 1551 1551 1551 1551 1550 1550 1550 1549 1549 1549 1549 1548 1548 1548 1548 1548 1547 1547 1546 1546 1546 1545 1545 1544 1544 1544 1543 1542 1542 1540 1539 1538 1537
1550 1551 1551 1551 1551 1551 1551 1552 1551 1552 1552 1551 1551 1551 1550 1550 1550 1550 1550 1550 1550 1549 1549 1549 1549 1548 1548 1548 1547 1547 1547 1546 1546 1545 1545 1544 1544 1543 1542 1541 1540 1539 1538
1549 1550 1551 1551 1551 1551 1552 1552 1552 1552 1552 1552 1551 1551 1551 1551 1551 1551 1551 1551 1550 1550 1550 1550 1549 1549 1549 1549 1549 1548 1548 1547 1547 1546 1546 1545 1544 1543 1543 1542 1541 1540 1539
1549 1550 1551 1551 1552 1552 1552 1553 1553 1552 1552 1552 1552 1551 1551 1551 1551 1552 1551 1551 1551 1550 1550 1550 1550 1550 1550 1549 1550 1549 1549 1550 1548 1547 1547 1546 1545 1545 1544 1543 1542 1541 1540
1548 1549 1550 1551 1552 1552 1552 1552 1552 1553 1553 1553 1552 1552 1552 1552 1552 1552 1552 1552 1551 1551 1551 1551 1551 1550 1550 1550 1549 1550 1550 1549 1550 1549 1548 1547 1546 1545 1545 1544 1543 1542 1540
1547 1549 1550 1551 1552 1552 1552 1552 1553 1553 1553 1553 1553 1553 1553 1552 1552 1552 1552 1552 1552 1552 1551 1551 1551 1550 1550 1550 1550 1549 1550 1549 1550 1550 1550 1548 1547 1546 1545 1544 1543 1542 1541
1545 1547 1549 1550 1551 1551 1552 1552 1553 1553 1553 1553 1553 1553 1553 1553 1553 1553 1552 1552 1552 1552 1551 1551 1551 1550 1550 1550 1550 1549 1549 1549 1549 1549 1549 1549 1548 1547 1546 1545 1544 1543 1542
1544 1546 1547 1549 1550 1551 1551 1552 1553 1553 1553 1553 1553 1553 1553 1553 1553 1553 1552 1552 1552 1552 1551 1551 1551 1550 1550 1550 1550 1550 1549 1549 1549 1549 1549 1549 1548 1547 1546 1545 1545 1544 1543